Location: Carter Cabin
(41.0271°N, 122.9339°W)
Time: 14:14:34
(UTC+00:00)

Cosmos 1805 - Pass Details

Date: 13 April 2024
Orbit: 490 x 494 km, 82.5° (Epoch: 21 May)

Event Time Altitude Azimuth Distance (km) Brightness Sun altitude
Rises 12:04:39 0° 349° (N) 2,577 7.0 -16.7°
Reaches altitude 10° 12:06:47 10° 346° (NNW) 1,689 6.0 -16.3°
Maximum altitude 12:10:27 65° 264° (W) 541 3.0 -15.7°
Drops below altitude 10° 12:14:04 10° 183° (S) 1,673 5.5 -15.1°
Enters shadow 12:14:08 10° 183° (S) 1,702 5.5 -15.1°
